Date,TemperatureHighF,TemperatureAvgF,TemperatureLowF,DewpointHighF,DewpointAvgF,DewpointLowF,HumidityHigh,HumidityAvg,HumidityLow,PressureMaxIn,PressureMinIn,WindSpeedMaxMPH,WindSpeedAvgMPH,GustSpeedMaxMPH,PrecipitationSumIn
2013-1-13,60.1,50.3,37.2,57.8,48.4,34.5,96,93,90,30.07,29.81,9,4,14,0.38
2013-1-14,37.2,27.4,23.7,34.8,23.3,20.0,91,84,79,30.47,30.07,7,3,12,0.00
2013-1-15,32.6,28.2,23.0,26.3,22.9,20.2,90,80,71,30.44,30.11,5,3,9,0.00
2013-1-16,34.8,31.4,28.9,29.4,27.1,25.0,90,84,73,30.13,29.98,6,2,10,0.00
2013-1-20,29.2,26.4,22.9,17.4,15.7,14.4,73,64,58,30.22,30.17,8,5,14,0.00
2013-1-21,23.0,18.7,9.7,17.2,11.3,0.1,86,73,56,30.24,30.08,10,4,19,0.00
2013-1-24,-200.0,0.0,200.0,-99.9,-99.9,-99.9,0,0,100,30.56,30.52,0,-999,0,0.00
2013-1-25,-200.0,0.0,200.0,-99.9,-99.9,-99.9,0,0,100,30.52,30.00,0,-999,0,0.00
2013-1-26,27.5,7.6,25.1,21.9,-66.0,-99.9,80,21,72,30.47,30.06,6,-715,11,0.01
2013-2-2,26.4,15.8,19.5,23.2,-21.7,-99.9,89,56,85,30.16,30.03,5,-353,9,0.01
2013-2-3,20.8,18.5,13.9,16.8,13.2,-99.9,92,81,71,30.15,29.97,7,-1,11,0.00
2013-2-4,28.7,20.7,10.0,27.2,17.3,7.3,94,87,67,30.15,29.88,6,1,9,0.00
2013-2-5,32.2,27.6,23.6,29.2,24.5,21.6,94,88,77,30.02,29.90,5,2,9,0.09
2013-2-6,36.8,29.1,18.7,29.1,22.2,15.1,89,76,52,30.34,30.03,6,2,13,0.02
2013-2-7,48.1,34.0,19.6,35.7,27.1,16.1,88,77,61,30.29,29.99,4,2,8,0.00
2013-2-10,45.5,45.0,44.6,41.4,41.0,40.6,88,86,83,29.88,29.83,6,5,13,0.00
2013-2-11,51.1,43.2,35.7,46.0,36.4,27.7,95,77,61,30.01,29.75,12,6,23,0.00
2013-2-12,46.0,35.6,27.7,32.3,27.4,24.3,87,73,51,30.14,29.94,9,3,15,0.00
2013-2-13,32.9,28.9,25.7,27.7,25.6,22.9,92,87,80,29.95,29.79,4,1,7,0.00
2013-2-14,37.6,31.1,25.5,32.6,27.6,23.5,93,87,77,29.99,29.90,5,1,10,0.00
2013-2-15,35.0,30.2,24.6,31.5,26.9,20.2,92,87,76,30.16,29.98,6,1,13,0.03
2013-2-16,28.3,21.3,13.3,23.1,16.6,7.6,93,82,70,30.16,30.03,8,3,15,0.01
2013-2-17,24.4,17.1,11.2,14.9,10.2,6.2,85,74,57,30.31,30.12,6,2,13,0.00
2013-2-18,52.0,33.2,14.8,37.5,23.0,9.5,80,67,55,30.30,29.78,8,4,15,0.00
2013-2-19,33.3,25.9,20.4,31.8,21.0,14.8,94,81,73,30.09,29.73,12,8,25,0.10
2013-2-20,21.9,19.1,15.4,16.7,13.5,9.9,89,79,70,30.34,30.09,8,5,18,0.00
2013-2-21,27.0,23.1,19.7,19.8,17.4,14.4,87,79,73,30.41,30.22,6,3,9,0.00
2013-2-22,39.8,31.8,25.2,37.8,28.9,18.9,96,89,76,30.23,29.96,7,3,11,0.06
2013-2-23,39.9,33.6,28.8,32.0,28.4,24.3,94,82,65,30.01,29.93,6,2,13,0.00
2013-2-24,34.0,29.5,26.1,26.2,23.3,20.9,88,78,66,30.20,29.95,7,2,12,0.00
2013-2-25,45.3,32.8,19.0,30.2,25.0,16.8,100,75,51,30.25,30.03,6,2,10,0.00
2013-2-26,41.5,36.0,31.6,39.9,31.4,25.2,95,83,69,30.03,29.47,8,5,15,0.53
2013-3-1,27.1,26.7,26.2,22.0,21.0,19.8,81,79,75,30.08,30.07,5,4,9,0.01
2013-3-2,28.2,26.3,25.3,22.9,21.3,19.1,86,81,74,30.10,30.04,6,3,12,0.00
2013-3-3,30.5,26.2,23.0,20.5,18.0,14.7,82,71,59,30.11,30.04,7,3,16,0.00
2013-3-4,39.7,28.5,15.5,27.0,19.7,12.8,91,71,47,30.21,30.08,4,1,7,0.00
2013-3-5,37.8,33.8,30.1,30.1,28.2,25.7,93,80,69,30.12,29.61,6,3,11,0.07
2013-3-9,47.9,47.6,47.4,35.2,35.0,34.7,62,62,61,30.11,30.09,1,1,3,0.00
2013-3-10,67.0,55.5,43.5,46.8,39.8,33.9,77,56,43,30.10,29.84,5,2,14,0.00
2013-3-11,58.5,49.4,38.7,50.9,44.2,34.1,94,83,51,29.88,29.56,10,4,22,0.84
2013-3-12,38.5,35.1,30.1,34.1,30.9,27.8,92,84,74,30.04,29.82,8,3,15,0.01
2013-3-13,32.8,32.0,30.4,30.7,29.7,28.0,93,91,88,30.03,30.01,4,2,8,0.00
2013-3-16,49.0,38.6,31.3,45.8,35.9,28.9,93,90,83,30.05,29.63,8,4,12,0.12
2013-3-17,37.4,32.9,30.8,29.7,27.7,25.7,92,81,70,30.20,30.05,6,3,12,0.00
2013-3-18,34.0,33.7,33.4,32.7,32.3,31.9,95,94,94,29.79,29.77,9,7,13,0.40
2013-3-19,37.9,33.2,27.8,33.9,23.7,20.5,86,68,52,30.06,29.81,13,8,24,0.01
2013-3-20,34.4,29.2,22.0,22.8,18.5,13.3,76,64,55,30.06,29.95,9,5,18,0.00
2013-3-21,29.8,23.4,15.2,22.0,16.7,11.2,88,75,67,30.04,29.96,7,3,18,0.00
2013-3-22,27.5,23.8,20.8,21.5,18.2,16.2,82,79,75,30.07,30.03,1,0,4,0.00
2013-3-23,47.9,33.4,21.1,28.8,23.9,18.1,90,70,44,30.11,29.98,5,1,9,0.00
2013-3-24,36.2,32.4,29.6,30.2,26.0,24.0,92,77,63,30.00,29.46,9,5,12,0.00
2013-3-25,34.7,31.8,29.1,32.9,29.7,27.3,96,92,86,29.92,29.42,7,3,18,0.26
2013-3-26,34.4,32.3,31.4,31.1,29.8,27.5,94,91,77,30.20,29.92,4,3,10,0.05
2013-3-27,42.8,36.2,32.1,32.6,28.7,25.0,89,75,51,30.29,30.19,9,5,16,0.00
2013-3-28,48.4,38.3,28.3,32.0,27.4,23.5,84,66,48,30.34,30.28,8,3,15,0.00
2013-3-29,45.7,30.2,24.3,33.2,25.5,21.8,93,83,53,30.34,30.25,2,0,5,0.00
2013-3-30,57.2,41.9,24.1,35.7,29.6,21.9,94,66,38,30.27,29.98,4,1,10,0.00
2013-3-31,56.2,46.7,40.6,46.8,39.6,30.3,94,77,57,29.98,29.74,8,2,13,0.04
2013-4-1,46.4,38.8,30.8,41.8,26.6,17.3,85,62,45,30.14,29.76,9,4,20,0.00
2013-4-2,42.2,31.4,19.7,23.0,18.5,14.0,80,60,43,30.29,30.13,8,2,15,0.00
2013-4-3,46.3,33.1,19.8,23.9,17.6,13.3,77,54,35,30.46,30.29,8,2,14,0.00
2013-4-4,53.8,37.5,23.9,24.8,19.4,15.0,73,51,27,30.41,30.01,4,1,7,0.00
2013-4-5,55.2,41.6,26.2,38.2,27.4,20.1,79,58,40,30.19,29.98,7,2,13,0.00
2013-4-6,58.7,45.9,28.6,30.7,25.1,16.6,76,47,32,30.28,29.93,7,3,15,0.00
2013-4-7,72.8,60.6,51.6,49.5,41.9,29.1,65,51,38,29.99,29.83,9,4,16,0.00
2013-4-8,71.3,60.9,50.3,56.4,51.1,39.0,91,71,57,29.99,29.86,8,2,20,0.00
2013-4-9,81.2,64.7,52.3,62.6,55.5,49.5,92,74,48,30.06,29.88,9,2,16,0.00
2013-4-10,81.7,68.2,57.4,67.6,60.2,53.2,94,77,55,29.93,29.76,13,3,18,0.02
2013-4-11,57.5,47.4,54.4,56.7,31.0,-99.9,97,96,94,29.86,29.53,4,1,6,1.00
2013-4-12,45.4,26.4,-38.9,41.9,-15.6,-99.9,97,51,71,29.92,29.47,8,4,19,0.16
2013-4-13,50.3,43.0,33.1,40.6,35.9,29.4,88,76,65,30.06,29.91,8,3,15,0.00
2013-4-14,64.6,49.0,33.5,46.1,39.1,30.3,91,71,48,30.14,29.93,5,2,10,0.00
2013-4-15,68.9,58.5,44.2,56.4,48.2,39.4,92,69,57,30.01,29.92,7,2,13,0.00
2013-4-16,75.9,63.4,53.9,65.2,58.4,52.7,99,84,66,30.17,30.00,8,2,14,0.32
2013-4-17,66.7,58.2,51.0,61.5,55.5,49.9,97,91,82,30.24,29.99,7,2,11,0.16
2013-4-18,82.7,70.6,59.8,68.0,60.8,56.3,94,73,47,30.01,29.61,9,4,18,0.00
2013-4-19,71.9,50.0,38.2,59.7,42.3,30.9,94,75,58,29.93,29.40,11,6,22,0.66
2013-4-20,46.1,38.9,32.9,33.2,29.8,25.9,89,71,52,30.44,29.93,8,4,15,0.01
2013-4-21,53.9,40.6,26.2,33.9,27.9,21.9,86,62,43,30.60,30.44,5,1,9,0.00
2013-4-22,67.1,49.8,29.3,46.1,36.7,26.0,89,63,42,30.44,30.17,4,1,8,0.00
2013-4-23,71.3,57.3,40.0,52.8,44.4,34.9,87,64,42,30.18,29.87,5,2,14,0.00
2013-4-24,61.9,49.5,33.9,55.9,45.1,30.8,95,85,70,30.21,29.74,10,3,19,0.63
2013-4-25,55.9,43.0,31.5,42.0,34.6,28.8,95,74,50,30.40,30.20,10,2,18,0.00
2013-4-26,61.1,45.6,28.4,40.0,34.0,26.1,94,67,41,30.50,30.38,4,1,11,0.01
2013-4-27,69.2,54.0,33.7,49.4,40.4,31.6,100,65,34,30.39,30.09,4,1,11,0.00
2013-4-28,64.6,57.6,53.5,59.8,54.0,48.1,97,88,75,30.10,29.82,6,2,9,0.60
2013-4-29,65.6,33.0,53.3,57.8,-15.8,-99.9,97,48,72,29.98,29.86,4,0,7,0.41
2013-4-30,75.2,52.7,-39.3,60.4,34.7,-99.9,97,73,56,30.07,29.97,4,1,8,0.01
2013-5-6,67.6,62.3,56.4,58.1,55.1,48.6,92,78,66,29.99,29.94,3,1,8,0.01
2013-5-7,71.9,62.2,55.3,61.9,56.5,52.7,93,82,63,29.98,29.92,5,1,12,0.15
2013-5-8,56.5,55.7,55.3,54.1,53.5,53.0,93,92,91,29.97,29.96,0,0,0,0.02
2013-5-9,80.9,66.1,50.2,63.0,55.0,48.8,96,71,39,30.00,29.93,4,1,10,0.01
2013-5-10,72.2,63.2,58.7,65.5,60.0,-99.9,96,91,78,29.95,29.77,7,1,16,0.61
2013-5-11,60.7,51.0,44.8,59.3,45.1,-99.9,96,88,76,29.97,29.80,9,2,18,0.02
2013-5-12,52.8,44.1,35.6,39.1,34.8,31.1,94,72,49,30.14,29.97,8,3,16,0.00
2013-5-13,56.8,44.7,32.1,37.8,33.1,29.7,94,67,41,30.21,30.12,6,1,15,0.00
2013-5-14,77.8,57.9,35.3,58.7,46.4,32.9,93,68,46,30.17,29.80,7,2,16,0.00
2013-5-15,87.1,75.5,63.1,65.5,60.9,57.2,83,62,43,29.82,29.74,9,3,22,0.00
2013-5-16,78.8,71.0,59.7,64.0,59.5,52.8,94,69,42,29.95,29.77,3,0,7,0.06
2013-5-17,80.7,44.4,-39.3,66.8,3.6,-99.9,97,51,50,30.08,29.95,4,1,8,0.00
2013-5-18,81.1,67.4,57.9,67.4,61.6,56.4,95,83,60,30.08,29.97,2,0,7,0.05
2013-5-19,81.2,70.6,57.7,71.0,64.8,56.6,97,83,66,30.01,29.90,4,1,8,0.07
2013-5-20,87.4,75.3,63.5,72.8,67.9,62.3,98,80,57,29.98,29.86,4,1,14,0.00
2013-5-21,87.7,77.0,68.4,69.0,65.6,62.8,92,70,46,29.90,29.77,5,2,14,0.00
2013-5-22,82.2,71.9,62.6,70.0,63.8,60.3,96,77,54,29.81,29.69,6,2,12,0.20
2013-5-23,72.1,61.8,47.0,63.1,57.6,44.2,96,87,62,30.06,29.75,8,3,14,0.17
2013-5-24,60.1,49.7,42.0,44.2,40.7,37.8,90,72,51,30.33,30.06,8,4,16,0.00
2013-5-25,54.2,40.7,35.6,46.7,38.1,34.0,96,91,67,30.40,30.33,1,0,5,0.00
2013-5-27,69.7,62.4,50.8,55.3,51.8,47.0,92,69,56,30.24,29.99,6,3,13,0.01
2013-5-28,84.5,73.9,63.6,68.7,62.9,55.3,91,70,49,30.02,29.91,6,2,14,0.04
2013-5-29,88.8,77.0,66.3,67.2,61.9,58.2,79,62,38,30.04,29.95,5,2,13,0.00
2013-5-30,88.1,77.4,64.1,71.2,65.6,60.2,94,69,47,30.13,29.98,5,2,11,0.00
2013-5-31,88.1,73.8,66.3,69.9,65.8,61.7,96,78,51,30.04,29.91,9,2,19,0.17
2013-6-1,81.8,73.8,65.9,71.1,67.8,64.7,97,83,66,29.95,29.72,6,2,18,0.14
2013-6-2,76.3,69.8,63.7,67.3,62.7,58.5,96,79,61,29.90,29.75,5,2,14,0.10
2013-6-3,67.8,59.2,50.0,58.7,52.9,46.6,91,80,61,30.08,29.90,5,2,9,0.01
2013-6-4,74.5,53.8,41.5,53.2,46.3,39.9,95,79,45,30.15,30.08,3,0,7,0.03
2013-6-5,82.1,67.2,49.6,60.8,53.5,45.4,87,63,44,30.13,29.87,4,1,9,0.00
2013-6-6,66.2,61.3,57.4,63.8,58.9,55.2,97,92,70,29.89,29.77,4,2,9,0.26
2013-6-7,66.4,59.0,53.9,58.6,55.3,51.3,96,88,74,29.90,29.82,5,2,11,0.01
2013-6-8,75.4,63.1,50.2,60.1,55.4,49.1,97,78,53,30.06,29.89,2,0,6,0.00
2013-6-9,82.3,71.7,60.4,67.0,62.6,57.1,92,75,50,30.08,29.91,4,1,8,0.00
2013-6-10,80.4,69.7,65.7,69.1,65.1,62.6,98,86,62,29.91,29.74,5,1,9,0.65
2013-6-11,84.4,72.6,63.2,69.6,65.2,61.4,95,79,57,29.94,29.80,4,1,9,0.00
2013-6-12,88.5,78.2,66.2,76.5,71.0,63.2,94,80,64,29.90,29.66,3,0,12,0.00
2013-6-13,79.0,71.8,65.5,73.4,68.0,63.4,96,88,71,29.69,29.60,9,2,16,0.53
2013-6-17,86.1,73.4,64.2,73.3,66.9,62.7,98,83,47,29.95,29.87,2,0,7,0.00
2013-7-4,76.1,72.0,69.7,71.0,69.4,68.1,96,92,82,30.14,30.08,3,1,7,0.52
2013-7-5,78.9,71.5,66.2,70.8,68.3,65.3,98,90,72,30.15,30.07,3,0,6,0.27
2013-7-6,82.5,37.9,-90.0,74.3,34.3,-99.9,98,78,73,30.15,30.03,6,1,15,0.26
2013-7-7,81.4,71.5,63.8,71.5,66.7,61.3,98,86,67,30.12,30.00,5,0,10,0.17
2013-7-8,83.5,71.9,63.3,77.2,69.1,61.8,98,91,77,30.11,30.01,2,0,5,1.02
2013-7-9,88.1,76.6,71.9,79.3,73.2,70.1,97,90,73,30.03,29.94,4,1,14,0.72
2013-7-10,89.3,68.2,66.0,81.1,55.5,-99.9,98,85,72,29.97,29.77,12,1,24,0.25
2013-7-11,79.4,70.4,59.8,68.1,64.0,56.4,97,81,57,30.01,29.91,7,2,11,0.01
2013-7-12,59.8,59.1,57.9,57.6,56.9,55.9,95,92,90,30.02,30.01,0,0,1,0.00
2013-7-14,87.4,80.7,75.5,76.0,73.8,72.0,89,80,69,30.22,30.16,1,0,3,0.00
2013-7-15,91.9,80.8,70.9,76.9,73.1,69.1,95,79,54,30.29,30.21,1,0,6,0.00
2013-7-16,93.2,81.1,68.3,78.6,73.7,67.1,98,80,58,30.31,30.22,3,0,7,0.00
2013-7-17,92.4,82.5,71.7,78.4,74.7,70.8,98,79,58,30.29,30.14,3,1,8,0.00
2013-7-18,93.0,82.7,71.5,79.2,74.7,69.6,95,78,58,30.17,29.99,2,0,7,0.00
2013-7-19,90.0,79.7,70.6,78.6,73.8,68.9,96,83,67,30.00,29.84,3,1,11,0.00
2013-7-20,80.4,74.1,67.4,74.9,71.1,65.0,96,90,77,29.91,29.80,6,0,13,0.30
2013-7-21,85.4,74.5,69.0,75.3,66.4,-99.9,98,84,63,29.95,29.87,3,0,8,0.00
2013-7-22,76.6,72.0,67.9,72.0,69.7,66.7,98,93,84,29.91,29.74,3,0,10,1.20
2013-7-23,87.9,43.6,-90.0,78.2,36.8,-99.9,98,69,63,29.84,29.73,5,1,13,0.00
2013-7-24,72.8,67.1,58.0,66.6,59.6,54.3,89,77,60,30.00,29.84,6,3,14,0.01
2013-7-25,77.3,64.5,51.7,60.4,55.5,49.7,96,75,51,30.08,30.00,5,1,9,0.00
2013-7-26,79.4,67.2,52.2,64.7,59.3,50.8,97,78,55,30.09,29.95,3,0,8,0.00
2013-7-27,77.0,66.4,61.2,69.1,62.5,57.8,97,88,63,29.95,29.80,4,1,10,0.45
2013-7-28,70.3,61.5,51.6,59.2,54.6,50.2,97,80,58,29.98,29.87,4,1,12,0.00
2013-7-29,61.6,59.4,57.9,57.5,56.4,55.4,92,90,86,30.19,30.18,0,0,0,0.00
2013-7-30,79.0,67.1,53.6,66.0,60.3,52.5,98,80,56,30.24,30.12,2,0,5,0.00
2013-7-31,73.9,68.3,64.2,67.9,65.1,62.1,96,90,80,30.12,29.92,3,0,10,0.15
2013-8-1,79.9,52.1,-90.0,67.7,30.1,-99.9,98,68,61,29.97,29.88,4,1,10,0.01
2013-8-2,78.6,68.5,56.2,68.6,62.2,55.1,97,81,58,30.01,29.90,2,0,8,0.00
2013-8-3,80.8,71.1,62.8,70.8,65.6,60.2,97,84,59,30.00,29.93,4,1,8,0.19
2013-8-4,75.5,66.3,57.1,61.7,58.7,54.4,94,78,55,30.13,30.00,6,2,12,0.00
2013-8-5,76.6,64.2,50.7,63.4,57.8,49.6,98,81,57,30.13,29.98,2,0,5,0.00
2013-8-6,81.6,71.2,61.7,67.8,62.8,58.1,90,76,59,30.00,29.91,3,1,10,0.01
2013-8-7,85.5,74.7,65.1,76.8,70.1,62.2,95,86,71,29.93,29.85,2,0,8,0.00
2013-8-8,85.8,35.9,-90.0,77.3,31.8,-99.9,98,73,74,30.00,29.88,3,0,8,0.07
2013-8-9,80.4,-6.6,-90.0,69.9,-14.2,-99.9,98,50,66,30.17,29.97,4,1,8,0.51
2013-8-10,84.2,73.2,64.1,70.6,67.0,63.2,98,82,59,30.18,30.02,2,0,7,0.00
2013-8-11,83.8,65.3,-90.0,73.8,59.7,-99.9,98,82,63,30.09,30.01,5,1,9,0.00
2013-8-12,84.6,68.7,-90.0,72.4,62.7,-91.4,100,83,62,30.07,29.86,2,0,8,0.00
2013-8-13,74.0,67.0,54.3,65.7,60.6,49.9,97,81,56,30.02,29.81,7,2,13,0.00
2013-8-14,68.4,57.9,49.6,55.4,50.6,46.1,94,78,58,30.17,30.02,5,1,9,0.00
2013-8-15,50.7,48.4,46.2,48.7,46.8,44.8,95,94,93,30.18,30.16,0,0,0,0.00
2013-8-19,83.2,71.8,61.9,65.0,62.3,59.8,93,74,51,30.17,30.12,0,0,1,0.00
2013-8-20,85.5,70.9,55.1,71.2,63.0,54.0,98,79,50,30.19,30.09,2,0,6,0.00
2013-8-21,83.8,69.6,58.5,73.3,65.1,57.5,98,87,67,30.16,30.04,5,0,8,0.08
2013-8-22,83.9,60.0,-90.0,73.6,55.2,-99.9,98,82,68,30.11,30.01,6,1,12,0.01
2013-8-23,83.7,73.8,61.2,69.5,66.0,56.7,97,78,55,30.14,30.03,4,1,9,0.00
2013-8-24,84.5,68.7,52.3,64.8,59.2,50.9,96,74,47,30.28,30.14,3,0,8,0.00
2013-8-25,85.9,70.7,55.5,68.7,61.1,54.4,98,75,45,30.34,30.20,3,0,9,0.00
2013-8-26,87.9,73.5,56.9,73.7,66.1,55.8,98,79,57,30.25,30.03,4,1,9,0.00
2013-8-27,85.8,75.8,66.0,77.3,71.5,64.5,96,87,74,30.04,29.90,2,0,6,0.00
2013-10-21,58.9,52.9,45.8,49.6,47.6,42.4,92,83,60,29.92,29.88,6,3,11,0.01
2013-10-22,51.9,42.6,30.0,42.6,32.7,27.2,91,70,43,30.03,29.90,5,1,14,0.24
2013-10-23,47.0,37.9,32.6,38.4,34.6,30.8,95,88,64,30.03,29.80,7,2,18,0.04
2013-10-24,45.4,36.9,30.5,36.0,31.6,28.5,94,82,59,30.25,30.02,6,1,12,0.24
2013-10-25,47.9,35.8,26.6,35.7,28.8,24.3,92,77,52,30.43,30.25,6,1,11,0.00
2013-10-26,46.6,38.6,28.5,38.0,31.0,24.8,88,75,56,30.29,29.93,6,2,14,0.00
2013-10-27,54.5,36.8,26.9,41.0,32.1,25.4,96,85,48,30.14,30.05,3,0,7,0.00
2013-10-31,64.7,61.2,59.0,61.9,58.7,57.0,97,92,79,29.80,29.30,7,5,16,0.65
2013-11-1,62.8,53.8,48.3,61.9,47.2,-99.9,97,81,63,29.72,29.28,10,3,19,0.35
2013-11-2,51.9,47.3,42.0,44.4,42.0,39.6,93,82,63,30.07,29.71,7,3,12,0.01
2013-11-3,53.0,42.8,33.7,41.1,37.4,30.6,93,82,61,30.43,30.07,3,1,6,0.00
2013-11-4,53.7,43.9,33.2,41.2,35.6,29.8,91,74,56,30.47,30.35,5,1,9,0.00
2013-11-5,60.0,51.9,44.8,46.9,42.8,38.7,83,71,59,30.44,30.24,4,1,9,0.00
2013-11-6,63.9,54.8,47.5,57.6,48.3,39.2,95,79,63,30.24,29.94,9,3,18,0.19
2013-11-7,47.5,41.6,33.6,45.9,34.5,27.4,95,77,56,30.21,29.99,8,4,15,0.08
2013-11-8,45.0,37.6,30.4,36.0,32.0,28.4,93,81,62,30.38,30.18,8,2,16,0.01
2013-12-14,35.4,16.7,33.2,34.4,-35.8,-99.9,96,69,96,29.93,29.73,7,2,14,0.39
2013-12-15,26.9,21.6,21.0,25.2,9.9,-99.9,100,84,74,30.15,29.81,10,6,16,0.01
2013-12-16,27.6,22.2,16.9,26.1,18.5,14.0,94,86,79,30.21,30.03,6,2,13,0.00
2013-12-17,32.1,27.1,24.7,30.6,24.0,21.7,95,88,82,30.15,30.00,8,3,15,0.01
2013-12-18,28.2,25.2,22.1,23.4,19.8,16.8,91,80,68,30.28,30.08,5,2,12,0.00
2013-12-19,44.2,36.9,24.6,36.5,29.9,18.8,85,76,68,30.12,29.99,4,1,8,0.23
2013-12-20,56.9,48.5,40.6,55.5,44.2,34.2,96,85,74,29.99,29.83,5,3,14,0.04
2013-12-21,64.2,-20.3,-90.0,62.1,-36.9,-99.9,97,50,78,29.83,29.61,9,3,15,1.09
2013-12-22,60.9,45.2,-90.0,59.4,41.8,-99.9,98,88,74,30.05,29.70,9,5,18,0.83
2013-12-23,39.2,31.7,26.2,37.6,26.4,19.7,94,81,72,30.38,30.03,7,4,15,0.04
2013-12-24,26.3,15.6,10.6,21.6,11.1,5.7,89,82,76,30.62,30.35,8,4,15,0.00
2013-12-25,30.3,23.0,11.1,25.8,17.3,8.5,92,79,66,30.58,30.21,6,2,11,0.00
2013-12-26,36.3,31.2,27.4,27.2,23.8,18.8,86,75,54,30.38,30.18,8,4,15,0.00
2013-12-27,45.5,35.4,29.6,34.0,28.6,24.5,89,76,63,30.42,30.27,5,2,10,0.00
2013-12-28,51.3,39.1,31.7,39.3,32.6,27.8,92,78,63,30.27,30.04,4,1,9,0.00
2013-12-29,41.5,37.9,31.1,39.5,34.9,27.7,95,89,77,30.04,29.78,7,3,13,0.31
2013-12-30,31.1,26.1,24.7,27.3,21.3,19.3,86,82,78,30.26,30.00,7,2,14,0.00
2014-1-2,21.0,13.7,7.8,17.8,10.1,3.7,92,85,83,30.24,29.85,10,8,25,0.00